owner,sensor,date,latitude,longitude,vertical_datum,wind_speed,wind_to_direction,wind_speed_of_gust,qcFlag 
COMPS,ioos:station:USF.COMPS:TAR:1,2014-01-01T00:00:00Z,28.1560,-82.7580,7.0,1.17,35.85,1.86,'1111122,1111122,1111122' 
COMPS,ioos:station:USF.COMPS:TAR:1,2014-01-01T00:06:00Z,28.1560,-82.7580,7.0,1.13,32.72,2.05,'1111122,1111122,1111122' 
COMPS,ioos:station:USF.COMPS:TAR:1,2014-01-01T00:12:00Z,28.1560,-82.7580,7.0,0.69,36.62,1.27,'1111122,1111122,1111122' 
COMPS,ioos:station:USF.COMPS:TAR:1,2014-01-01T00:18:00Z,28.1560,-82.7580,7.0,1.21,40.76,1.86,'1111122,1111122,1111122' 
COMPS,ioos:station:USF.COMPS:TAR:1,2014-01-01T00:24:00Z,28.1560,-82.7580,7.0,1.68,42.25,2.25,'1111122,1111122,1111122' 
COMPS,ioos:station:USF.COMPS:TAR:1,2014-01-01T00:30:00Z,28.1560,-82.7580,7.0,1.36,34.65,2.15,'1111122,1111122,1111122' 
COMPS,ioos:station:USF.COMPS:TAR:1,2014-01-01T00:36:00Z,28.1560,-82.7580,7.0,1.8,41.86,2.54,'1111122,1111122,1111122' 
COMPS,ioos:station:USF.COMPS:TAR:1,2014-01-01T00:42:00Z,28.1560,-82.7580,7.0,1.6,43.51,2.25,'1111122,1111122,1111122' 
COMPS,ioos:station:USF.COMPS:TAR:1,2014-01-01T00:48:00Z,28.1560,-82.7580,7.0,1.66,37.92,2.45,'1111122,1111122,1111122' 
COMPS,ioos:station:USF.COMPS:TAR:1,2014-01-01T00:54:00Z,28.1560,-82.7580,7.0,1.71,30.87,2.35,'1111122,1111122,1111122' 
COMPS,ioos:station:USF.COMPS:TAR:1,2014-01-01T01:00:00Z,28.1560,-82.7580,7.0,1.79,37.1,3.03,'1111122,1111122,1111122' 
COMPS,ioos:station:USF.COMPS:TAR:1,2014-01-01T01:06:00Z,28.1560,-82.7580,7.0,1.83,36.58,2.84,'1111122,1111122,1111122' 
COMPS,ioos:station:USF.COMPS:TAR:1,2014-01-01T01:12:00Z,28.1560,-82.7580,7.0,1.86,31.08,2.74,'1111122,1111122,1111122' 
COMPS,ioos:station:USF.COMPS:TAR:1,2014-01-01T01:18:00Z,28.1560,-82.7580,7.0,1.9,38.89,3.03,'1111122,1111122,1111122' 
COMPS,ioos:station:USF.COMPS:TAR:1,2014-01-01T01:24:00Z,28.1560,-82.7580,7.0,2.22,42.08,3.13,'1111122,1111122,1111122' 
COMPS,ioos:station:USF.COMPS:TAR:1,2014-01-01T01:30:00Z,28.1560,-82.7580,7.0,2.37,44.13,3.62,'1111122,1111122,1111122' 
COMPS,ioos:station:USF.COMPS:TAR:1,2014-01-01T01:36:00Z,28.1560,-82.7580,7.0,2.47,46.22,3.33,'1111122,1111122,1111122' 
COMPS,ioos:station:USF.COMPS:TAR:1,2014-01-01T01:42:00Z,28.1560,-82.7580,7.0,2.41,43.95,4.01,'1111122,1111122,1111122' 
COMPS,ioos:station:USF.COMPS:TAR:1,2014-01-01T01:48:00Z,28.1560,-82.7580,7.0,2.32,45.48,4.01,'1111122,1111122,1111122' 
COMPS,ioos:station:USF.COMPS:TAR:1,2014-01-01T01:54:00Z,28.1560,-82.7580,7.0,2.53,44.3,3.82,'1111122,1111122,1111122' 
COMPS,ioos:station:USF.COMPS:TAR:1,2014-01-01T02:00:00Z,28.1560,-82.7580,7.0,2.68,46.58,4.9,'1111122,1111122,1111122' 
COMPS,ioos:station:USF.COMPS:TAR:1,2014-01-01T02:06:00Z,28.1560,-82.7580,7.0,3.15,42.42,5.48,'1111122,1111122,1111122' 
COMPS,ioos:station:USF.COMPS:TAR:1,2014-01-01T02:12:00Z,28.1560,-82.7580,7.0,2.38,42.45,3.82,'1111122,1111122,1111122' 
COMPS,ioos:station:USF.COMPS:TAR:1,2014-01-01T02:18:00Z,28.1560,-82.7580,7.0,2.99,42.96,4.6,'1111122,1111122,1111122' 
COMPS,ioos:station:USF.COMPS:TAR:1,2014-01-01T02:24:00Z,28.1560,-82.7580,7.0,2.03,49.27,3.52,'1111122,1111122,1111122' 
COMPS,ioos:station:USF.COMPS:TAR:1,2014-01-01T02:30:00Z,28.1560,-82.7580,7.0,1.67,76.22,3.91,'1111122,1111122,1111122' 
COMPS,ioos:station:USF.COMPS:TAR:1,2014-01-01T02:36:00Z,28.1560,-82.7580,7.0,1.56,72.11,3.62,'1111122,1111122,1111122' 
COMPS,ioos:station:USF.COMPS:TAR:1,2014-01-01T02:42:00Z,28.1560,-82.7580,7.0,1.63,52.77,3.23,'1111122,1111122,1111122' 
COMPS,ioos:station:USF.COMPS:TAR:1,2014-01-01T02:48:00Z,28.1560,-82.7580,7.0,1.94,49.85,3.52,'1111122,1111122,1111122' 
COMPS,ioos:station:USF.COMPS:TAR:1,2014-01-01T02:54:00Z,28.1560,-82.7580,7.0,1.4,48.76,2.74,'1111122,1111122,1111122' 
COMPS,ioos:station:USF.COMPS:TAR:1,2014-01-01T03:00:00Z,28.1560,-82.7580,7.0,1.67,53.07,3.33,'1111122,1111122,1111122' 
COMPS,ioos:station:USF.COMPS:TAR:1,2014-01-01T03:06:00Z,28.1560,-82.7580,7.0,2.42,38.53,3.62,'1111122,1111122,1111122' 
COMPS,ioos:station:USF.COMPS:TAR:1,2014-01-01T03:12:00Z,28.1560,-82.7580,7.0,2.53,39.04,4.11,'1111122,1111122,1111122' 
COMPS,ioos:station:USF.COMPS:TAR:1,2014-01-01T03:18:00Z,28.1560,-82.7580,7.0,2.86,38.45,4.5,'1111122,1111122,1111122' 
COMPS,ioos:station:USF.COMPS:TAR:1,2014-01-01T03:24:00Z,28.1560,-82.7580,7.0,2.49,40.1,4.5,'1111122,1111122,1111122' 
COMPS,ioos:station:USF.COMPS:TAR:1,2014-01-01T03:30:00Z,28.1560,-82.7580,7.0,2.28,33.95,3.23,'1111122,1111122,1111122' 
COMPS,ioos:station:USF.COMPS:TAR:1,2014-01-01T03:36:00Z,28.1560,-82.7580,7.0,2.06,35.56,3.52,'1111122,1111122,1111122' 
COMPS,ioos:station:USF.COMPS:TAR:1,2014-01-01T03:42:00Z,28.1560,-82.7580,7.0,2.38,30.04,4.01,'1111122,1111122,1111122' 
COMPS,ioos:station:USF.COMPS:TAR:1,2014-01-01T03:48:00Z,28.1560,-82.7580,7.0,2.37,27.46,3.42,'1111122,1111122,1111122' 
COMPS,ioos:station:USF.COMPS:TAR:1,2014-01-01T03:54:00Z,28.1560,-82.7580,7.0,2.31,18.21,3.03,'1111122,1111122,1111122' 
COMPS,ioos:station:USF.COMPS:TAR:1,2014-01-01T04:00:00Z,28.1560,-82.7580,7.0,2.55,18.87,3.91,'1111122,1111122,1111122' 
COMPS,ioos:station:USF.COMPS:TAR:1,2014-01-01T04:06:00Z,28.1560,-82.7580,7.0,3.1,24.76,4.21,'1111122,1111122,1111122' 
COMPS,ioos:station:USF.COMPS:TAR:1,2014-01-01T04:12:00Z,28.1560,-82.7580,7.0,2.52,29.0,4.21,'1111122,1111122,1111122' 
COMPS,ioos:station:USF.COMPS:TAR:1,2014-01-01T04:18:00Z,28.1560,-82.7580,7.0,2.76,31.88,4.01,'1111122,1111122,1111122' 
COMPS,ioos:station:USF.COMPS:TAR:1,2014-01-01T04:24:00Z,28.1560,-82.7580,7.0,2.78,28.75,4.01,'1111122,1111122,1111122' 
COMPS,ioos:station:USF.COMPS:TAR:1,2014-01-01T04:30:00Z,28.1560,-82.7580,7.0,2.85,34.54,4.6,'1111122,1111122,1111122' 
COMPS,ioos:station:USF.COMPS:TAR:1,2014-01-01T04:36:00Z,28.1560,-82.7580,7.0,3.33,44.32,4.9,'1111122,1111122,1111122' 
COMPS,ioos:station:USF.COMPS:TAR:1,2014-01-01T04:42:00Z,28.1560,-82.7580,7.0,2.51,46.01,4.8,'1111122,1111122,1111122' 
COMPS,ioos:station:USF.COMPS:TAR:1,2014-01-01T04:48:00Z,28.1560,-82.7580,7.0,2.1,46.16,4.6,'1111122,1111122,1111122' 
COMPS,ioos:station:USF.COMPS:TAR:1,2014-01-01T04:54:00Z,28.1560,-82.7580,7.0,2.71,48.01,5.29,'1111122,1111122,1111122' 
COMPS,ioos:station:USF.COMPS:TAR:1,2014-01-01T05:00:00Z,28.1560,-82.7580,7.0,2.1,48.62,3.42,'1111122,1111122,1111122' 
COMPS,ioos:station:USF.COMPS:TAR:1,2014-01-01T05:06:00Z,28.1560,-82.7580,7.0,2.18,73.45,4.21,'1111122,1111122,1111122' 
COMPS,ioos:station:USF.COMPS:TAR:1,2014-01-01T05:12:00Z,28.1560,-82.7580,7.0,1.92,88.54,3.33,'1111122,1111122,1111122' 
COMPS,ioos:station:USF.COMPS:TAR:1,2014-01-01T05:18:00Z,28.1560,-82.7580,7.0,1.77,78.48,3.62,'1111122,1111122,1111122' 
COMPS,ioos:station:USF.COMPS:TAR:1,2014-01-01T05:24:00Z,28.1560,-82.7580,7.0,1.91,73.84,3.33,'1111122,1111122,1111122' 
COMPS,ioos:station:USF.COMPS:TAR:1,2014-01-01T05:30:00Z,28.1560,-82.7580,7.0,1.52,82.76,3.23,'1111122,1111122,1111122' 
COMPS,ioos:station:USF.COMPS:TAR:1,2014-01-01T05:36:00Z,28.1560,-82.7580,7.0,1.56,75.03,2.93,'1111122,1111122,1111122' 
COMPS,ioos:station:USF.COMPS:TAR:1,2014-01-01T05:42:00Z,28.1560,-82.7580,7.0,1.79,67.76,3.23,'1111122,1111122,1111122' 
COMPS,ioos:station:USF.COMPS:TAR:1,2014-01-01T05:48:00Z,28.1560,-82.7580,7.0,2.13,77.82,3.82,'1111122,1111122,1111122' 
COMPS,ioos:station:USF.COMPS:TAR:1,2014-01-01T05:54:00Z,28.1560,-82.7580,7.0,2.06,50.46,3.52,'1111122,1111122,1111122' 
COMPS,ioos:station:USF.COMPS:TAR:1,2014-01-01T06:00:00Z,28.1560,-82.7580,7.0,1.54,45.81,2.84,'1111122,1111122,1111122' 
COMPS,ioos:station:USF.COMPS:TAR:1,2014-01-01T06:06:00Z,28.1560,-82.7580,7.0,2.97,41.22,4.41,'1111122,1111122,1111122' 
COMPS,ioos:station:USF.COMPS:TAR:1,2014-01-01T06:12:00Z,28.1560,-82.7580,7.0,2.7,42.8,4.21,'1111122,1111122,1111122' 
COMPS,ioos:station:USF.COMPS:TAR:1,2014-01-01T06:18:00Z,28.1560,-82.7580,7.0,2.78,47.68,4.21,'1111122,1111122,1111122' 
COMPS,ioos:station:USF.COMPS:TAR:1,2014-01-01T06:24:00Z,28.1560,-82.7580,7.0,3.04,43.78,4.5,'1111122,1111122,1111122' 
COMPS,ioos:station:USF.COMPS:TAR:1,2014-01-01T06:30:00Z,28.1560,-82.7580,7.0,2.56,42.14,4.8,'1111122,1111122,1111122' 
COMPS,ioos:station:USF.COMPS:TAR:1,2014-01-01T06:36:00Z,28.1560,-82.7580,7.0,2.79,38.49,4.31,'1111122,1111122,1111122' 
COMPS,ioos:station:USF.COMPS:TAR:1,2014-01-01T06:42:00Z,28.1560,-82.7580,7.0,2.66,38.87,4.11,'1111122,1111122,1111122' 
COMPS,ioos:station:USF.COMPS:TAR:1,2014-01-01T06:48:00Z,28.1560,-82.7580,7.0,2.42,42.92,3.52,'1111122,1111122,1111122' 
COMPS,ioos:station:USF.COMPS:TAR:1,2014-01-01T06:54:00Z,28.1560,-82.7580,7.0,2.38,28.79,3.91,'1111122,1111122,1111122' 
COMPS,ioos:station:USF.COMPS:TAR:1,2014-01-01T07:00:00Z,28.1560,-82.7580,7.0,1.96,21.99,2.84,'1111122,1111122,1111122' 
COMPS,ioos:station:USF.COMPS:TAR:1,2014-01-01T07:06:00Z,28.1560,-82.7580,7.0,1.6,29.25,2.93,'1111122,1111122,1111122' 
COMPS,ioos:station:USF.COMPS:TAR:1,2014-01-01T07:12:00Z,28.1560,-82.7580,7.0,2.05,41.82,3.03,'1111122,1111122,1111122' 
COMPS,ioos:station:USF.COMPS:TAR:1,2014-01-01T07:18:00Z,28.1560,-82.7580,7.0,2.21,50.87,3.82,'1111122,1111122,1111122' 
COMPS,ioos:station:USF.COMPS:TAR:1,2014-01-01T07:24:00Z,28.1560,-82.7580,7.0,1.68,40.45,2.64,'1111122,1111122,1111122' 
COMPS,ioos:station:USF.COMPS:TAR:1,2014-01-01T07:30:00Z,28.1560,-82.7580,7.0,1.97,55.6,4.01,'1111122,1111122,1111122' 
COMPS,ioos:station:USF.COMPS:TAR:1,2014-01-01T07:36:00Z,28.1560,-82.7580,7.0,1.53,63.26,2.64,'1111122,1111122,1111122' 
COMPS,ioos:station:USF.COMPS:TAR:1,2014-01-01T07:42:00Z,28.1560,-82.7580,7.0,1.55,51.06,2.93,'1111122,1111122,1111122' 
COMPS,ioos:station:USF.COMPS:TAR:1,2014-01-01T07:48:00Z,28.1560,-82.7580,7.0,1.36,40.12,3.03,'1111122,1111122,1111122' 
COMPS,ioos:station:USF.COMPS:TAR:1,2014-01-01T07:54:00Z,28.1560,-82.7580,7.0,2.09,47.39,3.23,'1111122,1111122,1111122' 
COMPS,ioos:station:USF.COMPS:TAR:1,2014-01-01T08:00:00Z,28.1560,-82.7580,7.0,2.1,36.63,3.23,'1111122,1111122,1111122' 
COMPS,ioos:station:USF.COMPS:TAR:1,2014-01-01T08:06:00Z,28.1560,-82.7580,7.0,2.01,35.44,3.03,'1111122,1111122,1111122' 
COMPS,ioos:station:USF.COMPS:TAR:1,2014-01-01T08:12:00Z,28.1560,-82.7580,7.0,2.28,29.42,3.23,'1111122,1111122,1111122' 
COMPS,ioos:station:USF.COMPS:TAR:1,2014-01-01T08:18:00Z,28.1560,-82.7580,7.0,2.58,40.19,3.82,'1111122,1111122,1111122' 
COMPS,ioos:station:USF.COMPS:TAR:1,2014-01-01T08:24:00Z,28.1560,-82.7580,7.0,2.38,46.16,3.82,'1111122,1111122,1111122' 
COMPS,ioos:station:USF.COMPS:TAR:1,2014-01-01T08:30:00Z,28.1560,-82.7580,7.0,3.23,38.11,4.6,'1111122,1111122,1111122' 
COMPS,ioos:station:USF.COMPS:TAR:1,2014-01-01T08:36:00Z,28.1560,-82.7580,7.0,3.1,42.62,4.5,'1111122,1111122,1111122' 
COMPS,ioos:station:USF.COMPS:TAR:1,2014-01-01T08:42:00Z,28.1560,-82.7580,7.0,2.74,32.64,4.21,'1111122,1111122,1111122' 
COMPS,ioos:station:USF.COMPS:TAR:1,2014-01-01T08:48:00Z,28.1560,-82.7580,7.0,2.27,40.97,3.62,'1111122,1111122,1111122' 
COMPS,ioos:station:USF.COMPS:TAR:1,2014-01-01T08:54:00Z,28.1560,-82.7580,7.0,3.1,38.63,4.9,'1111122,1111122,1111122' 
COMPS,ioos:station:USF.COMPS:TAR:1,2014-01-01T09:00:00Z,28.1560,-82.7580,7.0,3.38,43.2,4.5,'1111122,1111122,1111122' 
COMPS,ioos:station:USF.COMPS:TAR:1,2014-01-01T09:06:00Z,28.1560,-82.7580,7.0,3.62,42.31,5.39,'1111122,1111122,1111122' 
COMPS,ioos:station:USF.COMPS:TAR:1,2014-01-01T09:12:00Z,28.1560,-82.7580,7.0,2.57,30.81,4.41,'1111122,1111122,1111122' 
COMPS,ioos:station:USF.COMPS:TAR:1,2014-01-01T09:18:00Z,28.1560,-82.7580,7.0,2.99,34.97,4.8,'1111122,1111122,1111122' 
COMPS,ioos:station:USF.COMPS:TAR:1,2014-01-01T09:24:00Z,28.1560,-82.7580,7.0,2.88,38.08,4.21,'1111122,1111122,1111122' 
COMPS,ioos:station:USF.COMPS:TAR:1,2014-01-01T09:30:00Z,28.1560,-82.7580,7.0,2.79,38.44,3.91,'1111122,1111122,1111122' 
COMPS,ioos:station:USF.COMPS:TAR:1,2014-01-01T09:36:00Z,28.1560,-82.7580,7.0,2.93,42.49,4.21,'1111122,1111122,1111122' 
COMPS,ioos:station:USF.COMPS:TAR:1,2014-01-01T09:42:00Z,28.1560,-82.7580,7.0,2.43,39.36,4.21,'1111122,1111122,1111122' 
COMPS,ioos:station:USF.COMPS:TAR:1,2014-01-01T09:48:00Z,28.1560,-82.7580,7.0,2.51,40.65,3.52,'1111122,1111122,1111122' 
COMPS,ioos:station:USF.COMPS:TAR:1,2014-01-01T09:54:00Z,28.1560,-82.7580,7.0,3.24,44.55,4.9,'1111122,1111122,1111122' 
COMPS,ioos:station:USF.COMPS:TAR:1,2014-01-01T10:00:00Z,28.1560,-82.7580,7.0,2.85,41.29,4.41,'1111122,1111122,1111122' 
COMPS,ioos:station:USF.COMPS:TAR:1,2014-01-01T10:06:00Z,28.1560,-82.7580,7.0,2.92,33.66,4.31,'1111122,1111122,1111122' 
COMPS,ioos:station:USF.COMPS:TAR:1,2014-01-01T10:12:00Z,28.1560,-82.7580,7.0,2.81,37.39,4.5,'1111122,1111122,1111122' 
COMPS,ioos:station:USF.COMPS:TAR:1,2014-01-01T10:18:00Z,28.1560,-82.7580,7.0,3.59,37.25,5.39,'1111122,1111122,1111122' 
COMPS,ioos:station:USF.COMPS:TAR:1,2014-01-01T10:24:00Z,28.1560,-82.7580,7.0,3.35,37.93,6.07,'1111122,1111122,1111122' 
COMPS,ioos:station:USF.COMPS:TAR:1,2014-01-01T10:30:00Z,28.1560,-82.7580,7.0,3.24,33.35,4.7,'1111122,1111122,1111122' 
COMPS,ioos:station:USF.COMPS:TAR:1,2014-01-01T10:36:00Z,28.1560,-82.7580,7.0,3.83,32.0,5.29,'1111122,1111122,1111122' 
COMPS,ioos:station:USF.COMPS:TAR:1,2014-01-01T10:42:00Z,28.1560,-82.7580,7.0,3.57,37.0,5.39,'1111122,1111122,1111122' 
COMPS,ioos:station:USF.COMPS:TAR:1,2014-01-01T10:48:00Z,28.1560,-82.7580,7.0,4.12,37.04,5.48,'1111122,1111122,1111122' 
COMPS,ioos:station:USF.COMPS:TAR:1,2014-01-01T10:54:00Z,28.1560,-82.7580,7.0,4.0,35.71,7.35,'1111122,1111122,1111122' 
COMPS,ioos:station:USF.COMPS:TAR:1,2014-01-01T11:00:00Z,28.1560,-82.7580,7.0,4.01,43.14,8.23,'1111122,1111122,1111122' 
COMPS,ioos:station:USF.COMPS:TAR:1,2014-01-01T11:06:00Z,28.1560,-82.7580,7.0,4.15,40.85,6.07,'1111122,1111122,1111122' 
COMPS,ioos:station:USF.COMPS:TAR:1,2014-01-01T11:12:00Z,28.1560,-82.7580,7.0,3.88,42.7,6.37,'1111122,1111122,1111122' 
COMPS,ioos:station:USF.COMPS:TAR:1,2014-01-01T11:18:00Z,28.1560,-82.7580,7.0,3.53,39.79,5.09,'1111122,1111122,1111122' 
COMPS,ioos:station:USF.COMPS:TAR:1,2014-01-01T11:24:00Z,28.1560,-82.7580,7.0,3.82,42.37,6.07,'1111122,1111122,1111122' 
COMPS,ioos:station:USF.COMPS:TAR:1,2014-01-01T11:30:00Z,28.1560,-82.7580,7.0,5.01,37.02,6.95,'1111122,1111122,1111122' 
COMPS,ioos:station:USF.COMPS:TAR:1,2014-01-01T11:36:00Z,28.1560,-82.7580,7.0,3.46,38.72,5.68,'1111122,1111122,1111122' 
COMPS,ioos:station:USF.COMPS:TAR:1,2014-01-01T11:42:00Z,28.1560,-82.7580,7.0,3.32,36.88,5.19,'1111122,1111122,1111122' 
COMPS,ioos:station:USF.COMPS:TAR:1,2014-01-01T11:48:00Z,28.1560,-82.7580,7.0,3.46,39.96,6.27,'1111122,1111122,1111122' 
COMPS,ioos:station:USF.COMPS:TAR:1,2014-01-01T11:54:00Z,28.1560,-82.7580,7.0,3.16,40.81,4.9,'1111122,1111122,1111122' 
COMPS,ioos:station:USF.COMPS:TAR:1,2014-01-01T12:00:00Z,28.1560,-82.7580,7.0,2.8,39.04,5.29,'1111122,1111122,1111122' 
COMPS,ioos:station:USF.COMPS:TAR:1,2014-01-01T12:06:00Z,28.1560,-82.7580,7.0,2.65,47.01,4.11,'1111122,1111122,1111122' 
COMPS,ioos:station:USF.COMPS:TAR:1,2014-01-01T12:12:00Z,28.1560,-82.7580,7.0,2.51,48.59,4.5,'1111122,1111122,1111122' 
COMPS,ioos:station:USF.COMPS:TAR:1,2014-01-01T12:18:00Z,28.1560,-82.7580,7.0,2.58,43.94,4.6,'1111122,1111122,1111122' 
COMPS,ioos:station:USF.COMPS:TAR:1,2014-01-01T12:24:00Z,28.1560,-82.7580,7.0,3.52,40.46,5.78,'1111122,1111122,1111122' 
COMPS,ioos:station:USF.COMPS:TAR:1,2014-01-01T12:30:00Z,28.1560,-82.7580,7.0,3.82,38.67,6.07,'1111122,1111122,1111122' 
COMPS,ioos:station:USF.COMPS:TAR:1,2014-01-01T12:36:00Z,28.1560,-82.7580,7.0,3.66,39.28,5.78,'1111122,1111122,1111122' 
COMPS,ioos:station:USF.COMPS:TAR:1,2014-01-01T12:42:00Z,28.1560,-82.7580,7.0,2.79,37.94,5.87,'1111122,1111122,1111122' 
COMPS,ioos:station:USF.COMPS:TAR:1,2014-01-01T12:48:00Z,28.1560,-82.7580,7.0,3.31,44.06,4.99,'1111122,1111122,1111122' 
COMPS,ioos:station:USF.COMPS:TAR:1,2014-01-01T12:54:00Z,28.1560,-82.7580,7.0,3.53,42.74,5.68,'1111122,1111122,1111122' 
COMPS,ioos:station:USF.COMPS:TAR:1,2014-01-01T13:00:00Z,28.1560,-82.7580,7.0,3.14,40.85,5.19,'1111122,1111122,1111122' 
COMPS,ioos:station:USF.COMPS:TAR:1,2014-01-01T13:06:00Z,28.1560,-82.7580,7.0,3.21,40.62,5.29,'1111122,1111122,1111122' 
COMPS,ioos:station:USF.COMPS:TAR:1,2014-01-01T13:12:00Z,28.1560,-82.7580,7.0,3.59,43.82,5.58,'1111122,1111122,1111122' 
COMPS,ioos:station:USF.COMPS:TAR:1,2014-01-01T13:18:00Z,28.1560,-82.7580,7.0,3.61,44.2,4.8,'1111122,1111122,1111122' 
COMPS,ioos:station:USF.COMPS:TAR:1,2014-01-01T13:24:00Z,28.1560,-82.7580,7.0,2.56,48.49,3.91,'1111122,1111122,1111122' 
COMPS,ioos:station:USF.COMPS:TAR:1,2014-01-01T13:30:00Z,28.1560,-82.7580,7.0,2.9,37.25,4.11,'1111122,1111122,1111122' 
COMPS,ioos:station:USF.COMPS:TAR:1,2014-01-01T13:36:00Z,28.1560,-82.7580,7.0,2.67,45.32,4.9,'1111122,1111122,1111122' 
COMPS,ioos:station:USF.COMPS:TAR:1,2014-01-01T13:42:00Z,28.1560,-82.7580,7.0,2.52,38.56,4.7,'1111122,1111122,1111122' 
COMPS,ioos:station:USF.COMPS:TAR:1,2014-01-01T13:48:00Z,28.1560,-82.7580,7.0,3.17,35.48,5.19,'1111122,1111122,1111122' 
COMPS,ioos:station:USF.COMPS:TAR:1,2014-01-01T13:54:00Z,28.1560,-82.7580,7.0,2.73,46.24,4.5,'1111122,1111122,1111122' 
COMPS,ioos:station:USF.COMPS:TAR:1,2014-01-01T14:00:00Z,28.1560,-82.7580,7.0,1.93,50.77,4.11,'1111122,1111122,1111122' 
COMPS,ioos:station:USF.COMPS:TAR:1,2014-01-01T14:06:00Z,28.1560,-82.7580,7.0,3.2,37.81,4.8,'1111122,1111122,1111122' 
COMPS,ioos:station:USF.COMPS:TAR:1,2014-01-01T14:12:00Z,28.1560,-82.7580,7.0,2.83,40.4,4.21,'1111122,1111122,1111122' 
COMPS,ioos:station:USF.COMPS:TAR:1,2014-01-01T14:18:00Z,28.1560,-82.7580,7.0,2.37,45.47,3.62,'1111122,1111122,1111122' 
COMPS,ioos:station:USF.COMPS:TAR:1,2014-01-01T14:24:00Z,28.1560,-82.7580,7.0,2.76,40.17,5.19,'1111122,1111122,1111122' 
COMPS,ioos:station:USF.COMPS:TAR:1,2014-01-01T14:30:00Z,28.1560,-82.7580,7.0,1.99,59.84,3.62,'1111122,1111122,1111122' 
COMPS,ioos:station:USF.COMPS:TAR:1,2014-01-01T14:36:00Z,28.1560,-82.7580,7.0,1.66,59.4,2.74,'1111122,1111122,1111122' 
COMPS,ioos:station:USF.COMPS:TAR:1,2014-01-01T14:42:00Z,28.1560,-82.7580,7.0,2.22,63.71,3.91,'1111122,1111122,1111122' 
COMPS,ioos:station:USF.COMPS:TAR:1,2014-01-01T14:48:00Z,28.1560,-82.7580,7.0,2.27,47.83,3.91,'1111122,1111122,1111122' 
COMPS,ioos:station:USF.COMPS:TAR:1,2014-01-01T14:54:00Z,28.1560,-82.7580,7.0,2.32,37.93,4.01,'1111122,1111122,1111122' 
COMPS,ioos:station:USF.COMPS:TAR:1,2014-01-01T15:00:00Z,28.1560,-82.7580,7.0,2.44,38.6,4.01,'1111122,1111122,1111122' 
COMPS,ioos:station:USF.COMPS:TAR:1,2014-01-01T15:06:00Z,28.1560,-82.7580,7.0,1.69,38.04,3.23,'1111122,1111122,1111122' 
COMPS,ioos:station:USF.COMPS:TAR:1,2014-01-01T15:12:00Z,28.1560,-82.7580,7.0,1.79,41.64,2.93,'1111122,1111122,1111122' 
COMPS,ioos:station:USF.COMPS:TAR:1,2014-01-01T15:18:00Z,28.1560,-82.7580,7.0,2.17,34.84,3.03,'1111122,1111122,1111122' 
COMPS,ioos:station:USF.COMPS:TAR:1,2014-01-01T15:24:00Z,28.1560,-82.7580,7.0,2.19,43.85,4.31,'1111122,1111122,1111122' 
COMPS,ioos:station:USF.COMPS:TAR:1,2014-01-01T15:30:00Z,28.1560,-82.7580,7.0,1.77,38.29,3.03,'1111122,1111122,1111122' 
COMPS,ioos:station:USF.COMPS:TAR:1,2014-01-01T15:36:00Z,28.1560,-82.7580,7.0,1.75,43.06,3.23,'1111122,1111122,1111122' 
COMPS,ioos:station:USF.COMPS:TAR:1,2014-01-01T15:42:00Z,28.1560,-82.7580,7.0,2.82,44.35,4.21,'1111122,1111122,1111122' 
COMPS,ioos:station:USF.COMPS:TAR:1,2014-01-01T15:48:00Z,28.1560,-82.7580,7.0,2.38,40.81,3.91,'1111122,1111122,1111122' 
COMPS,ioos:station:USF.COMPS:TAR:1,2014-01-01T15:54:00Z,28.1560,-82.7580,7.0,2.55,29.3,3.91,'1111122,1111122,1111122' 
COMPS,ioos:station:USF.COMPS:TAR:1,2014-01-01T16:00:00Z,28.1560,-82.7580,7.0,2.85,35.91,4.41,'1111122,1111122,1111122' 
COMPS,ioos:station:USF.COMPS:TAR:1,2014-01-01T16:06:00Z,28.1560,-82.7580,7.0,3.22,27.41,4.31,'1111122,1111122,1111122' 
COMPS,ioos:station:USF.COMPS:TAR:1,2014-01-01T16:12:00Z,28.1560,-82.7580,7.0,3.16,25.57,4.6,'1111122,1111122,1111122' 
COMPS,ioos:station:USF.COMPS:TAR:1,2014-01-01T16:18:00Z,28.1560,-82.7580,7.0,2.5,30.13,3.62,'1111122,1111122,1111122' 
COMPS,ioos:station:USF.COMPS:TAR:1,2014-01-01T16:24:00Z,28.1560,-82.7580,7.0,2.24,23.94,3.42,'1111122,1111122,1111122' 
COMPS,ioos:station:USF.COMPS:TAR:1,2014-01-01T16:30:00Z,28.1560,-82.7580,7.0,2.4,19.22,3.42,'1111122,1111122,1111122' 
COMPS,ioos:station:USF.COMPS:TAR:1,2014-01-01T16:36:00Z,28.1560,-82.7580,7.0,3.08,22.02,4.41,'1111122,1111122,1111122' 
COMPS,ioos:station:USF.COMPS:TAR:1,2014-01-01T16:42:00Z,28.1560,-82.7580,7.0,3.01,25.56,4.5,'1111122,1111122,1111122' 
COMPS,ioos:station:USF.COMPS:TAR:1,2014-01-01T16:48:00Z,28.1560,-82.7580,7.0,3.05,18.38,4.6,'1111122,1111122,1111122' 
COMPS,ioos:station:USF.COMPS:TAR:1,2014-01-01T16:54:00Z,28.1560,-82.7580,7.0,2.82,15.13,4.6,'1111122,1111122,1111122' 
COMPS,ioos:station:USF.COMPS:TAR:1,2014-01-01T17:00:00Z,28.1560,-82.7580,7.0,3.09,14.95,4.7,'1111122,1111122,1111122' 
COMPS,ioos:station:USF.COMPS:TAR:1,2014-01-01T17:06:00Z,28.1560,-82.7580,7.0,3.72,11.08,5.09,'1111122,1111122,1111122' 
COMPS,ioos:station:USF.COMPS:TAR:1,2014-01-01T17:12:00Z,28.1560,-82.7580,7.0,3.41,15.96,5.68,'1111122,1111122,1111122' 
COMPS,ioos:station:USF.COMPS:TAR:1,2014-01-01T17:18:00Z,28.1560,-82.7580,7.0,3.21,24.1,4.7,'1111122,1111122,1111122' 
COMPS,ioos:station:USF.COMPS:TAR:1,2014-01-01T17:24:00Z,28.1560,-82.7580,7.0,3.94,31.46,5.39,'1111122,1111122,1111122' 
COMPS,ioos:station:USF.COMPS:TAR:1,2014-01-01T17:30:00Z,28.1560,-82.7580,7.0,3.39,33.66,4.6,'1111122,1111122,1111122' 
COMPS,ioos:station:USF.COMPS:TAR:1,2014-01-01T17:36:00Z,28.1560,-82.7580,7.0,3.38,29.63,5.58,'1111122,1111122,1111122' 
COMPS,ioos:station:USF.COMPS:TAR:1,2014-01-01T17:42:00Z,28.1560,-82.7580,7.0,3.05,31.17,4.41,'1111122,1111122,1111122' 
COMPS,ioos:station:USF.COMPS:TAR:1,2014-01-01T17:48:00Z,28.1560,-82.7580,7.0,2.6,32.44,3.82,'1111122,1111122,1111122' 
COMPS,ioos:station:USF.COMPS:TAR:1,2014-01-01T17:54:00Z,28.1560,-82.7580,7.0,3.28,37.1,5.29,'1111122,1111122,1111122' 
COMPS,ioos:station:USF.COMPS:TAR:1,2014-01-01T18:00:00Z,28.1560,-82.7580,7.0,3.51,34.99,5.29,'1111122,1111122,1111122' 
COMPS,ioos:station:USF.COMPS:TAR:1,2014-01-01T18:06:00Z,28.1560,-82.7580,7.0,3.58,33.74,5.39,'1111122,1111122,1111122' 
COMPS,ioos:station:USF.COMPS:TAR:1,2014-01-01T18:12:00Z,28.1560,-82.7580,7.0,3.14,32.12,5.09,'1111122,1111122,1111122' 
COMPS,ioos:station:USF.COMPS:TAR:1,2014-01-01T18:18:00Z,28.1560,-82.7580,7.0,3.38,39.53,4.9,'1111122,1111122,1111122' 
COMPS,ioos:station:USF.COMPS:TAR:1,2014-01-01T18:24:00Z,28.1560,-82.7580,7.0,3.79,32.38,5.78,'1111122,1111122,1111122' 
COMPS,ioos:station:USF.COMPS:TAR:1,2014-01-01T18:30:00Z,28.1560,-82.7580,7.0,3.51,33.18,6.07,'1111122,1111122,1111122' 
COMPS,ioos:station:USF.COMPS:TAR:1,2014-01-01T18:36:00Z,28.1560,-82.7580,7.0,3.54,45.35,5.78,'1111122,1111122,1111122' 
COMPS,ioos:station:USF.COMPS:TAR:1,2014-01-01T18:42:00Z,28.1560,-82.7580,7.0,3.24,42.19,4.7,'1111122,1111122,1111122' 
COMPS,ioos:station:USF.COMPS:TAR:1,2014-01-01T18:48:00Z,28.1560,-82.7580,7.0,3.03,29.44,4.6,'1111122,1111122,1111122' 
COMPS,ioos:station:USF.COMPS:TAR:1,2014-01-01T18:54:00Z,28.1560,-82.7580,7.0,3.38,36.51,5.39,'1111122,1111122,1111122' 
COMPS,ioos:station:USF.COMPS:TAR:1,2014-01-01T19:00:00Z,28.1560,-82.7580,7.0,3.08,38.28,4.7,'1111122,1111122,1111122' 
COMPS,ioos:station:USF.COMPS:TAR:1,2014-01-01T19:06:00Z,28.1560,-82.7580,7.0,2.72,22.73,4.7,'1111122,1111122,1111122' 
COMPS,ioos:station:USF.COMPS:TAR:1,2014-01-01T19:12:00Z,28.1560,-82.7580,7.0,2.94,32.51,5.29,'1111122,1111122,1111122' 
COMPS,ioos:station:USF.COMPS:TAR:1,2014-01-01T19:18:00Z,28.1560,-82.7580,7.0,2.5,27.35,4.41,'1111122,1111122,1111122' 
COMPS,ioos:station:USF.COMPS:TAR:1,2014-01-01T19:24:00Z,28.1560,-82.7580,7.0,2.56,46.69,3.72,'1111122,1111122,1111122' 
COMPS,ioos:station:USF.COMPS:TAR:1,2014-01-01T19:30:00Z,28.1560,-82.7580,7.0,3.19,39.54,5.48,'1111122,1111122,1111122' 
COMPS,ioos:station:USF.COMPS:TAR:1,2014-01-01T19:36:00Z,28.1560,-82.7580,7.0,3.83,41.36,5.19,'1111122,1111122,1111122' 
COMPS,ioos:station:USF.COMPS:TAR:1,2014-01-01T19:42:00Z,28.1560,-82.7580,7.0,3.66,46.28,5.58,'1111122,1111122,1111122' 
COMPS,ioos:station:USF.COMPS:TAR:1,2014-01-01T19:48:00Z,28.1560,-82.7580,7.0,3.51,47.86,4.8,'1111122,1111122,1111122' 